LEGION A

Last updated on Sat Aug 17 2024 00:02:05 GMT+0000 (Coordinated Universal Time)

1 60452U 24146A 24229.57559644 .00013217 00000+0 34699-3 0 9995 2 60452 44.9943 42.4027 0004897 356.0726 4.0123 15.38647043 155

Satellite not in orbit

LEGION A